Location: Monrovia
(34.7865°N, 86.7139°W)
Time: 21:07:16
(UTC+00:00)

Cosmos 1271 Rocket - Pass Details

Date: 14 July 2020
Orbit: 497 x 546 km, 81.2° (Epoch: 08 August)

Event Time Altitude Azimuth Distance (km) Brightness Sun altitude
Rises 09:04:11 0° 357° (N) 2,609 6.9 -17.6°
Reaches altitude 10° 09:06:21 10° 2° (N) 1,715 6.0 -17.3°
Maximum altitude 09:10:02 54° 80° (E) 611 3.3 -16.7°
Drops below altitude 10° 09:13:40 10° 159° (SSE) 1,692 5.1 -16.2°
Enters shadow 09:14:25 - 161° (SSE) 1,996 5.4 -16.1°
